Main page
METAR-TAF:

METAR-TAF

Airports :

Tartu Airport

Tartu, Estonia

latitude: 58-18N, longitude: 026-44E, elevation: 59 m

Current weather observation

The report was made 21 minutes ago, at 04:20 UTC
Calm wind
Temperature 17°C
Humidity 94%
Pressure 1018 hPa
Visibility 10 km or more

METAR: EETU 150420Z AUTO 00000KT 9999 NCD 17/16 Q1018

Time: 07:41 (04:41 UTC)


TAF: missing

Weather observations and forecasts of more than 4000 airports (METAR and TAF reports).

The available stations are represented by yellow and red dots on the map.

Hover mouse over dot to see the name of the station.

Then click to see weather observations and forecasts.

To change the map : click on the green buttons with a black cross to zoom in, on the green button with a dash to zoom out, or on the green arrows for adjacent maps.


METAR-TAF: